Altus AFB, OK

10:49 PM CST on November 19, 2017 (GMT -0600)
Altus Air Force Base

Weather History for KLTS - May, 2013

Change the Weather History Date:

Wednesday, May 29, 2013

  Actual Average Record
Temperature  
Mean Temperature 80 °F -  
Max Temperature 87 °F 86 °F 107 °F (1998)
Min Temperature 72 °F 63 °F 54 °F (2017)
Cooling Degree Days 14    
Growing Degree Days 30 (Base 50)    
Moisture  
Dew Point 66 °F    
Average Humidity 67    
Maximum Humidity 86    
Minimum Humidity 43    
Precipitation  
Precipitation 0.13 in - - ()
Sea Level Pressure  
Sea Level Pressure 29.64 in    
Wind  
Wind Speed 18 mph (SSE)    
Max Wind Speed 40 mph    
Max Gust Speed 70 mph    
Visibility 9 miles    
Events Rain , Hail , Thunderstorm    
Averages and records for this station are not official NWS values.
T = Trace of Precipitation, MM = Missing Value Source: NWS Daily Summary

Daily Weather History Graph

Daily Weather History Graph

Search for Another Location

Airport or City:

Trip Planner

Search our weather history database for the weather conditions in past years. The results will help you decide how hot, cold, wet, or windy it might be!

Date:

Astronomy

May. 29, 2013 Rise Set
Actual Time 6:26 AM CDT 8:43 PM CDT
Civil Twilight 5:57 AM CDT 9:12 PM CDT
Nautical Twilight 5:21 AM CDT 9:47 PM CDT
Astronomical Twilight 4:43 AM CDT 10:26 PM CDT
Moon 12:12 AM CDT (5/29) 11:20 AM CDT (5/29)
Length of Visible Light 15h 14m
Length of Day
14h 17m
Waning Gibbous, 73% of the Moon is Illuminated
May 29
Waning Gibbous
May 31
Last Quarter
Jun 8
New
Jun 16
First Quarter
Jun 23
Full

Hourly Weather History & Observations

Time (CDT) Temp. Heat Index Dew Point Humidity Pressure Visibility Wind Dir Wind Speed Gust Speed Precip Events Conditions
12:08 AM 73.4 °F - 66.2 °F 78% 29.74 in 10.0 mi East 9.2 mph - N/A   Mostly Cloudy
12:13 AM 73.4 °F - 66.2 °F 78% 29.74 in 10.0 mi East 9.2 mph - N/A   Mostly Cloudy
12:33 AM 73.4 °F - 66.2 °F 78% 29.74 in 10.0 mi ESE 9.2 mph - N/A   Overcast
12:58 AM 75.0 °F - 66.7 °F 75% 29.70 in 10.0 mi ESE 11.5 mph - N/A   Overcast
1:23 AM 75.2 °F - 66.2 °F 73% 29.73 in 10.0 mi ESE 12.7 mph - N/A   Overcast
1:58 AM 75.2 °F - 66.2 °F 73% 29.67 in 10.0 mi ESE 11.5 mph - N/A   Scattered Clouds
2:58 AM 72.9 °F - 66.7 °F 81% 29.65 in 10.0 mi ESE 10.4 mph - N/A   Clear
3:58 AM 72.7 °F - 66.9 °F 82% 29.65 in 10.0 mi SE 12.7 mph - N/A   Scattered Clouds
4:03 AM 73.4 °F - 68.0 °F 83% 29.70 in 10.0 mi SE 12.7 mph - N/A   Mostly Cloudy
4:58 AM 73.4 °F - 67.1 °F 81% 29.66 in 10.0 mi ESE 12.7 mph - N/A   Overcast
5:58 AM 73.4 °F - 67.3 °F 81% 29.67 in 10.0 mi ESE 15.0 mph - N/A   Overcast
6:18 AM 73.4 °F - 68.0 °F 83% 29.71 in 10.0 mi SE 16.1 mph - N/A   Overcast
6:23 AM 73.4 °F - 66.2 °F 78% 29.71 in 10.0 mi SE 17.3 mph 23.0 mph N/A   Overcast
6:28 AM 73.4 °F - 66.2 °F 78% 29.72 in 10.0 mi SE 16.1 mph - N/A   Overcast
6:33 AM 73.4 °F - 66.2 °F 78% 29.72 in 10.0 mi SE 16.1 mph - N/A   Overcast
6:58 AM 73.8 °F - 66.9 °F 79% 29.68 in 10.0 mi SE 18.4 mph - N/A   Overcast
7:18 AM 73.4 °F - 66.2 °F 78% 29.72 in 10.0 mi SE 18.4 mph - N/A   Overcast
7:48 AM 73.4 °F - 66.2 °F 78% 29.71 in 10.0 mi SE 18.4 mph - N/A   Mostly Cloudy
7:58 AM 73.6 °F - 66.6 °F 79% 29.67 in 10.0 mi ESE 20.7 mph - N/A   Mostly Cloudy
8:58 AM 75.9 °F - 66.6 °F 73% 29.67 in 10.0 mi SE 23.0 mph 29.9 mph N/A   Mostly Cloudy
9:08 AM 77.0 °F - 66.2 °F 69% 29.71 in 10.0 mi SE 23.0 mph 28.8 mph N/A   Mostly Cloudy
9:38 AM 77.0 °F - 66.2 °F 69% 29.71 in 10.0 mi SSE 24.2 mph 33.4 mph N/A   Overcast
9:58 AM 78.1 °F - 66.0 °F 66% 29.67 in 10.0 mi SSE 24.2 mph 29.9 mph N/A   Mostly Cloudy
10:23 AM 80.6 °F 82.7 °F 66.2 °F 61% 29.69 in 10.0 mi SSE 23.0 mph 32.2 mph N/A   Mostly Cloudy
10:33 AM 80.6 °F 82.7 °F 66.2 °F 61% 29.69 in 10.0 mi SSE 24.2 mph 33.4 mph N/A   Mostly Cloudy
10:38 AM 80.6 °F 82.7 °F 66.2 °F 61% 29.69 in 10.0 mi SSE 23.0 mph 32.2 mph N/A   Scattered Clouds
10:53 AM 80.6 °F 82.7 °F 66.2 °F 61% 29.68 in 10.0 mi SE 25.3 mph 33.4 mph N/A   Mostly Cloudy
10:58 AM 81.1 °F 83.2 °F 66.0 °F 60% 29.64 in 10.0 mi SE 29.9 mph 36.8 mph N/A   Mostly Cloudy
11:58 AM 82.2 °F 84.2 °F 65.5 °F 57% 29.64 in 10.0 mi SSE 25.3 mph 31.1 mph N/A   Mostly Cloudy
12:08 PM 82.4 °F 84.6 °F 66.2 °F 58% 29.68 in 10.0 mi SSE 26.5 mph 35.7 mph N/A   Mostly Cloudy
12:13 PM 82.4 °F 84.6 °F 66.2 °F 58% 29.67 in 10.0 mi SSE 26.5 mph 33.4 mph N/A   Mostly Cloudy
12:18 PM 82.4 °F 84.6 °F 66.2 °F 58% 29.67 in 10.0 mi SSE 25.3 mph 32.2 mph N/A   Mostly Cloudy
12:23 PM 84.2 °F 86.6 °F 66.2 °F 55% 29.67 in 10.0 mi South 25.3 mph 34.5 mph N/A   Mostly Cloudy
12:33 PM 84.2 °F 86.6 °F 66.2 °F 55% 29.67 in 10.0 mi SSE 25.3 mph 34.5 mph N/A   Mostly Cloudy
12:58 PM 82.4 °F 83.9 °F 64.4 °F 54% 29.61 in 10.0 mi South 26.5 mph 34.5 mph N/A   Overcast
1:58 PM 85.5 °F 87.1 °F 64.9 °F 50% 29.58 in 10.0 mi SSE 25.3 mph 34.5 mph N/A   Mostly Cloudy
2:38 PM 87.8 °F 88.5 °F 62.6 °F 43% 29.62 in 10.0 mi South 26.5 mph 33.4 mph N/A   Mostly Cloudy
2:48 PM 87.8 °F 88.5 °F 62.6 °F 43% 29.62 in 10.0 mi South 28.8 mph 34.5 mph N/A   Mostly Cloudy
2:54 PM 87.8 °F 88.5 °F 62.6 °F 43% 29.61 in 10.0 mi South 29.9 mph 38.0 mph N/A Thunderstorm Thunderstorm
2:58 PM 87.1 °F 88.0 °F 63.3 °F 45% 29.56 in 10.0 mi South 24.2 mph 38.0 mph N/A Thunderstorm Thunderstorm
3:03 PM 86.0 °F 87.3 °F 64.4 °F 48% 29.61 in 10.0 mi South 25.3 mph 35.7 mph N/A Rain , Thunderstorm Light Thunderstorms and Rain
3:06 PM 84.2 °F 87.3 °F 68.0 °F 58% 29.60 in 8.0 mi SSE 24.2 mph 33.4 mph N/A Rain , Thunderstorm Light Thunderstorms and Rain
3:09 PM 82.4 °F 85.4 °F 68.0 °F 62% 29.61 in 6.0 mi SSE 15.0 mph 33.4 mph N/A Rain , Thunderstorm Light Rain
3:14 PM 80.6 °F 82.7 °F 66.2 °F 61% 29.61 in 6.0 mi South 17.3 mph 33.4 mph N/A Rain , Thunderstorm Light Thunderstorms and Rain
3:30 PM 80.6 °F 82.7 °F 66.2 °F 61% 29.58 in 0.8 mi SSW 12.7 mph 70.2 mph N/A Rain , Hail , Thunderstorm Heavy Thunderstorms and Rain
3:33 PM 82.4 °F 83.9 °F 64.4 °F 54% 29.59 in 8.0 mi South 26.5 mph 47.2 mph N/A Rain , Thunderstorm Thunderstorms and Rain
3:34 PM 82.4 °F 83.9 °F 64.4 °F 54% 29.59 in 8.0 mi SSW 40.3 mph 47.2 mph N/A Rain , Thunderstorm Thunderstorms and Rain
3:35 PM 82.4 °F 83.9 °F 64.4 °F 54% 29.59 in 2.0 mi SW 38.0 mph 70.2 mph N/A Rain , Thunderstorm Thunderstorms and Rain
3:45 PM 75.2 °F - 66.2 °F 73% 29.60 in 1.8 mi South 17.3 mph 25.3 mph N/A Rain , Thunderstorm Light Rain
3:55 PM 78.8 °F - 68.0 °F 69% 29.52 in 10.0 mi SSE 12.7 mph - N/A   Scattered Clouds
4:58 PM 83.1 °F 86.3 °F 68.4 °F 61% 29.47 in 10.0 mi SSE 32.2 mph 46.0 mph 0.11 in   Partly Cloudy
5:58 PM 77.4 °F - 63.1 °F 61% 29.50 in 10.0 mi SSE 23.0 mph 28.8 mph N/A   Mostly Cloudy
6:58 PM 82.6 °F 85.1 °F 67.1 °F 59% 29.47 in 10.0 mi SE 26.5 mph 39.1 mph N/A   Mostly Cloudy
7:58 PM 81.3 °F 83.6 °F 66.6 °F 61% 29.49 in 10.0 mi SSE 25.3 mph 39.1 mph 0.02 in   Scattered Clouds
8:58 PM 80.4 °F 82.7 °F 66.7 °F 63% 29.52 in 10.0 mi SE 21.9 mph 27.6 mph N/A   Scattered Clouds
9:58 PM 78.3 °F - 68.0 °F 71% 29.52 in 10.0 mi SE 21.9 mph 28.8 mph N/A   Clear
10:23 PM 78.8 °F - 68.0 °F 69% 29.58 in 10.0 mi SE 26.5 mph 33.4 mph N/A   Mostly Cloudy
10:43 PM 75.2 °F - 69.8 °F 83% 29.59 in 10.0 mi SE 27.6 mph 36.8 mph N/A   Scattered Clouds
10:58 PM 74.1 °F - 69.8 °F 86% 29.55 in 10.0 mi SE 25.3 mph 34.5 mph N/A   Partly Cloudy
11:08 PM 75.2 °F - 69.8 °F 83% 29.59 in 10.0 mi SE 25.3 mph 35.7 mph N/A   Mostly Cloudy
11:58 PM 75.2 °F - 68.5 °F 80% 29.57 in 10.0 mi SE 25.3 mph 32.2 mph N/A   Overcast